Flag for Switzerland Weather past 2 weeks in Uster, Zurich, Switzerland

Now
38 °F

Chilly.


Feels Like: 38 °F
Forecast: 40 / 65 °F
Wind: No wind

Location: Zurich Town / Ville.


UV Index: 0 (Low)

Visibility: N/A


Pressure: 29.77 "Hg

Humidity: 95%

Dew point: 37 °F

Location of UsterLocation

Historic Weather in Uster

°F

Uster temperature yesterday

Maximum temperature yesterday: 46 °F (at 5:00 PM)
Minimum temperature yesterday: 35 °F (at 1:00 AM)
Average temperature yesterday: 40 °F

Past Weeks' High & Low Weather Summary

 TemperatureHumidityPressure
High67 °F (Apr 11, 5:00 PM)98% (Apr 6, 6:00 AM)30.34 "Hg (Apr 6, 6:00 AM)
Low35 °F (Apr 18, 9:00 PM)25% (Apr 17, 4:00 PM)29.77 "Hg (Apr 20, 2:00 AM)
Average50 °F64%30.09 "Hg
* Reported Apr 5 4:00 AM — Apr 20 4:00 AM, Uster, Weather by CustomWeather, © 2014

Note: Actual official high and low records may vary slightly from our data, if they occured in-between our weather recording intervals... More about our weather records

Advertising

Historic Weather Conditions — Data for Previous 24 hours

 ConditionsComfort  
Time TempWeatherWind HumidityBarometerVisibility
4:00 AM
Apr 20
37 °FChilly.No wind96%29.78 "HgN/A
3:00 AM38 °FChilly.No wind94%29.78 "HgN/A
2:00 AM38 °FChilly.3 mph93%29.77 "HgN/A
1:00 AM39 °FChilly.1 mph92%29.78 "HgN/A
12:00 AM39 °FChilly.1 mph91%29.80 "HgN/A
11:00 PM
Apr 19
41 °FQuite cool.5 mph88%29.80 "HgN/A
10:00 PM42 °FQuite cool.5 mph85%29.81 "HgN/A
9:00 PM42 °FQuite cool.6 mph84%29.81 "HgN/A
8:00 PM43 °FOvercast.2 mph81%29.80 "Hg9 mi
7:00 PM46 °FCool.2 mph70%29.79 "HgN/A
6:00 PM46 °FCool.3 mph69%29.79 "HgN/A
5:00 PM46 °FCool.5 mph72%29.78 "HgN/A
4:00 PM45 °FCool.5 mph70%29.80 "HgN/A
3:00 PM44 °FQuite cool.5 mph76%29.81 "HgN/A
2:00 PM42 °FOvercast.6 mph77%29.83 "Hg6 mi
1:00 PM41 °FQuite cool.5 mph86%29.84 "HgN/A
12:00 PM40 °FChilly.3 mph88%29.85 "HgN/A
11:00 AM39 °FChilly.3 mph91%29.85 "HgN/A
10:00 AM38 °FChilly.2 mph91%29.86 "HgN/A
9:00 AM36 °FChilly.3 mph95%29.87 "HgN/A
8:00 AM36 °FFog.5 mph95%29.88 "Hg2 mi
7:00 AM36 °FChilly.5 mph96%29.88 "HgN/A
6:00 AM36 °FChilly.3 mph97%29.89 "HgN/A
Weather by CustomWeather, © 2014

See weather overview